Saginaw, MI

1:32 AM EDT on May 29, 2017 (GMT -0400)
MBS International

Weather History for KMBS - September, 2013

Change the Weather History Date:

Friday, September 13, 2013

  Actual Average Record
Temperature  
Mean Temperature 53 °F 62 °F  
Max Temperature 62 °F 73 °F 91 °F (2005)
Min Temperature 43 °F 52 °F 43 °F (2013)
Degree Days  
Heating Degree Days 12    
Month to date heating degree days 24  
Since 1 July heating degree days 45  
Cooling Degree Days 0    
Month to date cooling degree days 43  
Year to date cooling degree days 650  
Growing Degree Days 4 (Base 50)    
Moisture  
Dew Point 41 °F    
Average Humidity 63    
Maximum Humidity 86    
Minimum Humidity 39    
Precipitation  
Precipitation 0.00 in 0.13 in 1.08 in (2008)
Month to date precipitation 0.08 1.64  
Year to date precipitation 24.96 22.16  
Snow  
Snow 0.00 in - - ()
Month to date snowfall 0.0  
Since 1 July snowfall 0.0  
Since 1 September snowfall 0.0  
Snow Depth 0.00 in    
Sea Level Pressure  
Sea Level Pressure 30.10 in    
Wind  
Wind Speed 9 mph (North)    
Max Wind Speed 23 mph    
Max Gust Speed 25 mph    
Visibility 10 miles    
Events      
T = Trace of Precipitation, MM = Missing Value Source: NWS Daily Summary

Daily Weather History Graph

Daily Weather History Graph

Search for Another Location

Airport or City:

Trip Planner

Search our weather history database for the weather conditions in past years. The results will help you decide how hot, cold, wet, or windy it might be!

Date:

Astronomy

Sep. 13, 2013 Rise Set
Actual Time 7:13 AM EDT 7:49 PM EDT
Civil Twilight 6:44 AM EDT 8:18 PM EDT
Nautical Twilight 6:10 AM EDT 8:52 PM EDT
Astronomical Twilight 5:35 AM EDT 9:27 PM EDT
Moon 3:46 PM EDT (9/13) 12:34 AM EDT (9/13)
Length of Visible Light 13h 33m
Length of Day
12h 35m
First Quarter, 61% of the Moon is Illuminated
Sep 13
First Quarter
Sep 19
Full
Sep 26
Last Quarter
Oct 4
New
Oct 11
First Quarter

Hourly Weather History & Observations

Time (EDT) Temp. Dew Point Humidity Pressure Visibility Wind Dir Wind Speed Gust Speed Precip Events Conditions
12:53 AM 54.0 °F 41.0 °F 62% 30.01 in 10.0 mi NNW 10.4 mph - N/A   Mostly Cloudy
1:53 AM 54.0 °F 41.0 °F 62% 30.02 in 10.0 mi NNW 11.5 mph - N/A   Overcast
2:53 AM 53.1 °F 43.0 °F 69% 30.02 in 10.0 mi NW 9.2 mph - N/A   Overcast
3:51 AM 53.6 °F 44.6 °F 72% 30.03 in 10.0 mi NNW 8.1 mph - N/A   Overcast
3:53 AM 53.1 °F 44.1 °F 71% 30.03 in 10.0 mi NNW 10.4 mph - N/A   Overcast
4:06 AM 53.6 °F 44.6 °F 72% 30.04 in 10.0 mi NNW 10.4 mph - N/A   Overcast
4:53 AM 53.1 °F 44.1 °F 71% 30.05 in 10.0 mi NNW 11.5 mph - N/A   Overcast
5:34 AM 51.8 °F 44.6 °F 76% 30.05 in 10.0 mi NNW 12.7 mph - N/A   Overcast
5:51 AM 51.8 °F 44.6 °F 76% 30.06 in 10.0 mi NNW 11.5 mph - N/A   Overcast
5:53 AM 52.0 °F 44.1 °F 74% 30.06 in 10.0 mi NNW 9.2 mph - N/A   Overcast
6:53 AM 50.0 °F 44.1 °F 80% 30.07 in 10.0 mi NNW 11.5 mph - N/A   Mostly Cloudy
7:53 AM 48.9 °F 44.1 °F 83% 30.09 in 10.0 mi NNW 10.4 mph - N/A   Partly Cloudy
8:53 AM 51.1 °F 43.0 °F 74% 30.10 in 10.0 mi NNW 9.2 mph - N/A   Partly Cloudy
9:48 AM 53.6 °F 39.2 °F 58% 30.11 in 10.0 mi North 21.9 mph 25.3 mph N/A   Mostly Cloudy
9:53 AM 54.0 °F 39.9 °F 59% 30.12 in 10.0 mi North 18.4 mph 25.3 mph N/A   Mostly Cloudy
10:25 AM 55.4 °F 39.2 °F 54% 30.12 in 10.0 mi North 13.8 mph 24.2 mph N/A   Scattered Clouds
10:53 AM 54.0 °F 39.9 °F 59% 30.13 in 10.0 mi NNE 16.1 mph - N/A   Mostly Cloudy
11:53 AM 54.0 °F 39.9 °F 59% 30.15 in 10.0 mi NNW 16.1 mph 21.9 mph N/A   Overcast
12:53 PM 54.0 °F 39.9 °F 59% 30.15 in 10.0 mi North 12.7 mph - N/A   Overcast
1:53 PM 55.0 °F 39.0 °F 55% 30.16 in 10.0 mi North 11.5 mph 18.4 mph N/A   Overcast
2:53 PM 57.9 °F 37.9 °F 47% 30.14 in 10.0 mi Variable 4.6 mph - N/A   Partly Cloudy
3:53 PM 61.0 °F 35.1 °F 38% 30.13 in 10.0 mi North 12.7 mph 18.4 mph N/A   Clear
4:53 PM 61.0 °F 36.0 °F 39% 30.12 in 10.0 mi Variable 5.8 mph - N/A   Clear
5:53 PM 61.0 °F 37.0 °F 41% 30.12 in 10.0 mi NE 8.1 mph - N/A   Clear
6:53 PM 57.9 °F 39.9 °F 51% 30.13 in 10.0 mi ENE 9.2 mph - N/A   Clear
7:53 PM 53.1 °F 42.1 °F 66% 30.14 in 10.0 mi ENE 5.8 mph - N/A   Clear
8:53 PM 50.0 °F 42.1 °F 74% 30.16 in 10.0 mi East 4.6 mph - N/A   Clear
9:53 PM 48.0 °F 41.0 °F 77% 30.16 in 10.0 mi SE 4.6 mph - N/A   Clear
10:53 PM 46.9 °F 39.0 °F 74% 30.16 in 10.0 mi SE 4.6 mph - N/A   Clear
11:53 PM 46.9 °F 39.0 °F 74% 30.17 in 10.0 mi Calm Calm - N/A   Clear